Back to catalog

CZ-6A DEB

AlivePO
NORAD 60698·DEBRIS·🇨🇳 China

Launched Aug 6, 2024 from Taiyuan Satellite Launch Center

Loading…

Next Passes (next 24 hours)

TLE

FreshSource: Space-Track

Epoch: Sep 14, 2026, 11:42 UTC

1 60698U 24140DB  26257.48750668  .00000664  00000-0  31626-3 0  9993
2 60698  89.0119 266.5723 0057288 267.2437  92.2193 14.17428782108381

Track CZ-6A DEB in real time with AllMySat

Download on the App Store